Terug naar catalogus

HG-01

ActiefWetenschapGEO
NORAD 59069·PAYLOAD·🇨🇳 China

Gelanceerd Feb 29, 2024 vanaf Xichang Satellite Launch Center

Loading…

TLE

VersSource: Space-Track

Epoch: Sep 14, 2026, 13:57 UTC

1 59069U 24040A   26257.58177438  .00000148  00000-0  00000-0 0  9997
2 59069   0.0903 338.6649 0001465  40.3077 217.6952  1.00274108  8226

Volg HG-01 in realtime met AllMySat

Download on the App Store